GW3985 Weather Reports


time (UTC)temp
C
wind
direction
speed
KPH
gust
KPH
rain 1hr
cm
rain 24hr
cm
rain mn
cm
humidity
%
barometer
mb
20260906214016 30 113 1.6 6.4 0.00 0.00 0.00 42 1021.6
20260906213017 30 102 1.6 4.8 0.00 0.00 0.00 41 1021.7
20260906212015 30 93 1.6 4.8 0.00 0.00 0.00 39 1021.7
20260906211015 31 91 3.2 6.4 0.00 0.00 0.00 37 1021.9
20260906210015 31 88 3.2 11.3 0.00 0.00 0.00 37 1022.0
20260906205016 31 87 1.6 6.4 0.00 0.00 0.00 38 1022.1
20260906204056 31 92 1.6 4.8 0.00 0.00 0.00 37 1022.3
20260906203017 31 97 1.6 4.8 0.00 0.00 0.00 39 1022.4
20260906202017 30 88 3.2 6.4 0.00 0.00 0.00 40 1022.4
20260906201015 31 85 3.2 6.4 0.00 0.00 0.00 38 1022.6
20260906200015 31 104 1.6 4.8 0.00 0.00 0.00 39 1022.6
20260906195016 31 92 1.6 4.8 0.00 0.00 0.00 39 1022.7
20260906194036 31 83 1.6 6.4 0.00 0.00 0.00 40 1022.9
20260906193056 31 88 3.2 6.4 0.00 0.00 0.00 40 1023.0
20260906192017 30 95 1.6 8.0 0.00 0.00 0.00 40 1023.2
20260906191015 30 99 1.6 3.2 0.00 0.00 0.00 39 1023.3
20260906190015 31 94 1.6 4.8 0.00 0.00 0.00 40 1023.4
20260906185015 30 283 0.0 1.6 0.00 0.00 0.00 41 1023.7
20260906184016 29 105 0.0 1.6 0.00 0.00 0.00 42 1024.0
20260906183016 28 288 0.0 3.2 0.00 0.00 0.00 44 1024.3
20260906182016 27 302 0.0 1.6 0.00 0.00 0.00 45 1024.5
20260906181017 27 342 0.0 3.2 0.00 0.00 0.00 46 1024.8
20260906180014 26 263 0.0 1.6 0.00 0.00 0.00 47 1025.0
20260906175015 26 344 0.0 1.6 0.00 0.00 0.00 48 1025.3
20260906174016 25 258 0.0 1.6 0.00 0.00 0.00 50 1025.4
20260906173016 25 17 0.0 3.2 0.00 0.00 0.00 51 1025.5
20260906172016 24 247 0.0 1.6 0.00 0.00 0.00 55 1025.6
20260906171016 23 0.0 0.0 0.00 0.00 0.00 57 1025.7
20260906170017 23 259 0.0 1.6 0.00 0.00 0.00 57 1025.7
20260906165015 23 247 0.0 3.2 0.00 0.00 0.00 58 1025.8
20260906164015 22 150 0.0 1.6 0.00 0.00 0.00 60 1025.9
20260906163015 22 276 0.0 1.6 0.00 0.00 0.00 61 1026.1
20260906162016 21 295 0.0 1.6 0.00 0.00 0.00 62 1026.1
20260906161056 21 293 0.0 1.6 0.00 0.00 0.00 65 1026.1
20260906160017 21 0.0 0.0 0.00 0.00 0.00 65 1025.9
20260906155017 21 0.0 0.0 0.00 0.00 0.00 67 1025.9
20260906154015 20 27 0.0 3.2 0.00 0.00 0.00 69 1026.1
20260906153015 20 41 0.0 1.6 0.00 0.00 0.00 71 1026.1
20260906152015 20 50 0.0 1.6 0.00 0.00 0.00 73 1025.9
20260906151017 19 239 0.0 1.6 0.00 0.00 0.00 73 1026.0
20260906145516 18 224 0.0 1.6 0.00 0.00 0.00 74 1026.0
20260906144537 18 143 0.0 3.2 0.00 0.00 0.00 74 1025.9
20260906143535 18 264 0.0 1.6 0.00 0.00 0.00 74 1025.9
20260906142515 17 277 0.0 1.6 0.00 0.00 0.00 74 1026.0
20260906141515 17 277 0.0 1.6 0.00 0.00 0.00 72 1026.1
20260906140516 17 0.0 0.0 0.00 0.00 0.00 71 1026.1
20260906135516 16 277 0.0 1.6 0.00 0.00 0.00 71 1025.9
20260906134517 16 0.0 0.0 0.00 0.00 0.00 71 1025.7
20260906133517 16 269 0.0 1.6 0.00 0.00 0.00 72 1025.7
20260906132535 15 0.0 0.0 0.00 0.00 0.00 73 1025.4
20260906131515 15 0.0 0.0 0.00 0.00 0.00 74 1025.4
20260906130516 15 0.0 0.0 0.00 0.00 0.00 73 1025.5
20260906125516 15 0.0 0.0 0.00 0.00 0.00 74 1025.6
20260906124516 15 0.0 0.0 0.00 0.00 0.00 74 1025.6
20260906123517 15 0.0 0.0 0.00 0.00 0.00 73 1025.5
20260906122517 15 0.0 0.0 0.00 0.00 0.00 72 1025.3
20260906121535 15 0.0 0.0 0.00 0.00 0.00 72 1025.2
20260906120555 15 0.0 0.0 0.00 0.00 0.00 72 1025.1
20260906115516 15 0.0 0.0 0.00 0.00 0.00 72 1025.1
20260906114516 15 274 0.0 1.6 0.00 0.00 0.00 72 1025.1
20260906113516 15 0.0 0.0 0.00 0.00 0.00 71 1025.1
20260906112537 16 0.0 0.0 0.00 0.00 0.00 71 1025.0
20260906111515 16 0.0 0.0 0.00 0.00 0.00 70 1025.0
20260906110515 16 0.0 0.0 0.00 0.00 0.00 69 1025.0
20260906105515 16 274 0.0 1.6 0.00 0.00 0.00 68 1025.0
20260906104516 17 0.0 0.0 0.00 0.00 0.00 67 1024.9
20260906103516 17 0.0 0.0 0.00 0.00 0.00 67 1024.9
20260906102516 17 0.0 0.0 0.00 0.00 0.00 67 1024.7
20260906101517 17 0.0 0.0 0.00 0.00 0.00 67 1024.9
20260906100515 17 280 0.0 1.6 0.00 0.00 0.00 67 1024.8
20260906095515 17 146 0.0 1.6 0.00 0.00 0.00 67 1024.7
20260906094536 17 135 0.0 1.6 0.00 0.00 0.00 66 1024.7
20260906093516 17 0.0 0.0 0.00 0.00 0.00 66 1024.7
20260906092516 17 135 0.0 1.6 0.00 0.00 0.00 65 1024.7
20260906091537 17 135 0.0 1.6 0.00 0.00 0.00 63 1024.6
20260906090537 18 0.0 0.0 0.00 0.00 0.00 62 1024.6
20260906085515 18 0.0 0.0 0.00 0.00 0.00 60 1024.5
20260906084515 18 135 0.0 1.6 0.00 0.00 0.00 59 1024.6
20260906083516 19 135 0.0 1.6 0.00 0.00 0.00 59 1024.6
20260906082516 19 0.0 0.0 0.00 0.00 0.00 59 1024.8
20260906081517 19 0.0 0.0 0.00 0.00 0.00 58 1024.8
20260906080017 20 133 0.0 1.6 0.00 0.00 0.00 57 1024.8
20260906075015 20 0.0 0.0 0.00 0.00 0.00 57 1024.9
20260906074135 20 134 0.0 3.2 0.00 0.00 0.00 57 1024.8
20260906073015 20 135 0.0 3.2 0.00 0.00 0.00 56 1024.7
20260906072016 20 131 0.0 3.2 0.00 0.00 0.00 56 1024.6
20260906071036 20 104 0.0 1.6 0.00 0.00 0.00 57 1024.6
20260906070040 20 48 0.0 1.6 0.00 0.00 0.00 57 1024.5
20260906065037 20 0.0 0.0 0.00 0.00 0.00 56 1024.4
20260906064055 21 0.0 0.0 0.00 0.00 0.00 55 1024.3
20260906063015 21 36 0.0 1.6 0.00 0.00 0.00 54 1024.5
20260906062016 21 0.0 0.0 0.00 0.00 0.00 53 1024.4
20260906061016 21 0.0 0.0 0.00 0.00 0.00 52 1024.5
20260906060016 22 84 0.0 1.6 0.00 0.00 0.00 51 1024.7
20260906055017 22 83 0.0 4.8 0.00 0.00 0.00 49 1024.9
20260906054017 22 81 0.0 3.2 0.00 0.00 0.00 47 1025.0
20260906053015 22 129 0.0 1.6 0.00 0.00 0.00 47 1024.8
20260906052015 22 0.0 0.0 0.00 0.00 0.00 48 1024.7
20260906051016 22 129 0.0 1.6 0.00 0.00 0.00 46 1024.7
20260906050016 22 0.0 0.0 0.00 0.00 0.00 46 1024.9
20260906045016 22 0.0 0.0 0.00 0.00 0.00 46 1024.9
20260906044017 22 0.0 0.0 0.00 0.00 0.00 45 1025.1
20260906043014 23 0.0 0.0 0.00 0.00 0.00 45 1025.0
20260906042035 23 0.0 0.0 0.00 0.00 0.00 44 1024.9
20260906041015 23 0.0 0.0 0.00 0.00 0.00 41 1024.9
20260906040016 24 0.0 0.0 0.00 0.00 0.00 40 1025.0
20260906034016 25 129 0.0 3.2 0.00 0.00 0.00 39 1025.1
20260906033017 23 104 1.6 4.8 0.00 0.00 0.00 40 1025.0
20260906032014 23 137 1.6 4.8 0.00 0.00 0.00 42 1024.7
20260906031015 23 0.0 0.0 0.00 0.00 0.00 41 1024.0
20260906030016 23 0.0 0.0 0.00 0.00 0.00 41 1023.8
20260906025016 23 0.0 0.0 0.00 0.00 0.00 42 1023.6
20260906024016 23 0.0 0.0 0.00 0.00 0.00 41 1023.5
20260906023017 25 0.0 0.0 0.00 0.00 0.00 40 1023.3
20260906022037 25 0.0 0.0 0.00 0.00 0.00 38 1023.1
20260906021015 26 0.0 0.0 0.00 0.00 0.00 36 1023.0
20260906020015 26 0.0 0.0 0.00 0.00 0.00 35 1023.0
20260906015015 27 137 0.0 1.6 0.00 0.00 0.00 35 1023.0
20260906014016 27 137 0.0 1.6 0.00 0.00 0.00 34 1022.8
20260906013017 27 136 0.0 1.6 0.00 0.00 0.00 34 1022.8
20260906012017 28 139 0.0 1.6 0.00 0.00 0.00 33 1022.7
20260906011017 28 138 1.6 1.6 0.00 0.00 0.00 32 1022.7
20260906010015 28 145 0.0 4.8 0.00 0.00 0.00 32 1022.8
20260906005035 29 259 0.0 1.6 0.00 0.00 0.00 32 1022.8
20260906004015 29 150 0.0 1.6 0.00 0.00 0.00 31 1022.8
20260906003016 30 132 0.0 1.6 0.00 0.00 0.00 30 1022.7
20260906002016 30 146 0.0 3.2 0.00 0.00 0.00 30 1022.7
20260906001017 30 145 1.6 6.4 0.00 0.00 0.00 29 1022.7
20260906000035 31 139 1.6 6.4 0.00 0.00 0.00 29 1022.6
20260905235015 32 145 3.2 6.4 0.00 0.00 0.00 27 1022.6
20260905234055 33 136 0.0 1.6 0.00 0.00 0.00 24 1022.5
20260905233036 33 136 0.0 1.6 0.00 0.00 0.00 25 1022.5
20260905232016 33 143 1.6 6.4 0.00 0.00 0.00 25 1022.5
20260905231036 33 108 0.0 1.6 0.00 0.00 0.00 25 1022.5
20260905230017 33 141 0.0 1.6 0.00 0.00 0.00 24 1022.5
20260905225014 32 0.0 0.0 0.00 0.00 0.00 25 1022.5
20260905224015 31 155 0.0 1.6 0.00 0.00 0.00 27 1022.5
20260905223015 30 0.0 0.0 0.00 0.00 0.00 29 1022.6
20260905222036 31 228 0.0 1.6 0.00 0.00 0.00 28 1022.7
20260905221016 31 222 0.0 1.6 0.00 0.00 0.00 27 1022.7
20260905220117 31 0.0 0.0 0.00 0.00 0.00 27 1022.7
20260905215017 32 129 0.0 3.2 0.00 0.00 0.00 26 1022.8